Weather Roundup
Issued by NWS

Home | Current Version | Previous Version | Text Only | Print | Product List | Glossary On
Versions: 1 2 3 4 5 6 7 8 9 10 11 12 13 14 15 16 17 18 19 20 21 22 23 24 25 26 27 28 29 30 31 32 33 34 35 36 37 38 39 40 41 42 43 44 45 46 47 48 49 50
000
NZUS93 KARX 271510
HRRWXR

CURRENT HOURLY OBSERVATIONS ACROSS
MUCH OF THE UPPER MISSISSIPPI VALLEY
NATIONAL WEATHER SERVICE LA CROSSE WI
1000 AM CDT FRI MAR 27 2015


...SOUTHEAST MINNESOTA...


CITY           SKY/WX    TMP DP  RH WIND       PRES   REMARKS
ROCHESTER      SUNNY     21   8  57 NE6       30.25R WCI  13
ROCHESTER/MAYO FAIR      24   8  49 CALM      30.25S
WINONA         SUNNY     28  12  50 CALM      30.28S
AUSTIN         SUNNY     23   9  54 CALM      30.25R
ALBERT LEA     SUNNY     25  10  54 NE3       30.25S
DODGE CENTER   SUNNY     19   9  63 NE3       30.24S
PRESTON        SUNNY     21   8  56 N5        30.25R WCI  15
OWATONNA       SUNNY     21   7  53 NE5       30.26S WCI  15
FARIBAULT      SUNNY     23   7  50 N3        30.27S
$$

...ELSEWHERE IN MINNESOTA...


CITY           SKY/WX    TMP DP  RH WIND       PRES   REMARKS
MINNEAPOLIS    SUNNY     25   4  40 CALM      30.28S
INTNL FALLS    SUNNY     19   7  59 SW7       30.24F WCI  10
DULUTH         MOSUNNY   21   0  39 CALM      30.24R
RED WING       SUNNY     27   3  36 N5        30.28R WCI  21
REDWOOD FALLS  SUNNY     25   7  46 SE5       30.27F WCI  19
MANKATO        SUNNY     25   7  46 E6        30.27F WCI  18
WORTHINGTON    SUNNY     23   9  54 CALM      30.25F
FAIRMONT       SUNNY     25   7  46 E3        30.26S
$$

...SOUTHWEST WISCONSIN...


CITY           SKY/WX    TMP DP  RH WIND       PRES   REMARKS
LA CROSSE      SUNNY     27  10  49 NE8       30.28R WCI  19
PRAIRIE DU CHI SUNNY     26   8  47 N7        30.26S WCI  18
BOSCOBEL       SUNNY     26   8  46 N10G16    30.26S WCI  16
LONE ROCK      MOSUNNY   25   9  50 NE12      30.24F WCI  14
PLATTEVILLE    SUNNY     24   9  53 N8        30.22S WCI  15
FORT MC COY    SUNNY     25   8  46 N9        30.26F WCI  16
CAMP DOUGLAS   SUNNY     25   7  46 NE8       30.24S WCI  16
VIROQUA        FAIR      23  11  61 NE9       30.22S WCI  13
WIS DELLS      SUNNY     23   4  44 N8        30.22S WCI  14
$$

...ELSEWHERE IN WISCONSIN...


CITY           SKY/WX    TMP DP  RH WIND       PRES   REMARKS
MILWAUKEE      MOSUNNY   23   5  46 N17       30.18R WCI   9
MADISON        MOSUNNY   25   6  44 N16G25    30.21S WCI  12
GREEN BAY      PTSUNNY   22   8  55 N13       30.23R WCI  10
EAU CLAIRE     SUNNY     25   7  46 NE10      30.26S WCI  15
BLACK RVR FLS  FAIR      24   8  49 CALM      30.26S
MEDFORD        PTSUNNY   18   8  64 N7        30.20F WCI   9
WAUSAU         PTSUNNY   19   9  65 N7        30.21R WCI  10
WIS RAPIDS     MOSUNNY   23   5  46 N10       30.25S WCI  12
MARSHFIELD     MOSUNNY   23   7  50 N9        30.22S WCI  13
RICE LAKE      SUNNY     23   8  53 N6        30.27S WCI  15
$$

...NORTHEAST IOWA...


CITY           SKY/WX    TMP DP  RH WIND       PRES   REMARKS
DECORAH        SUNNY     23   7  50 N9        30.23F WCI  13
MASON CITY     SUNNY     27  13  55 CALM      30.27R
CHARLES CITY   SUNNY     25  10  54 NE8       30.26S WCI  16
OELWEIN        SUNNY     27   9  46 N10G18    30.25S WCI  17
$$

...ELSEWHERE IN IOWA...


CITY           SKY/WX    TMP DP  RH WIND       PRES   REMARKS
DES MOINES     MOSUNNY   33  15  47 N9        30.27S WCI  25
IOWA CITY      SUNNY     29   7  39 NE12      30.27R WCI  19
FORT DODGE     SUNNY     28  16  59 N5        30.28S WCI  23
$$

...NORTHERN ILLINOIS...


CITY           SKY/WX    TMP DP  RH WIND       PRES   REMARKS
CHICAGO-OHARE  MOSUNNY   24  10  55 N17       30.15S WCI  11
CHICAGO-MIDWAY MOSUNNY   27  13  55 N16       30.15S WCI  15
MOLINE         SUNNY     28   8  43 N14       30.23R WCI  17
ROCKFORD       MOSUNNY   26   4  38 N22       30.22R WCI  12
PEORIA         SUNNY     32  10  40 N13       30.19R WCI  22
$$

NOTE: "FAIR" INDICATES FEW OR NO CLOUDS BELOW 12,000 FEET WITH NO
SIGNIFICANT WEATHER AND/OR OBSTRUCTIONS TO VISIBILITY. WIND
SPEEDS ARE IN MILES-PER-HOUR.



USA.gov is the U.S. government's official web portal to all federal, state and local government web resources and services.